Back to catalog

STARLINK-35225

AliveCommunicationsVLEO
NORAD 65626·PAYLOAD·🇺🇸 United States

Launched Sep 18, 2025 from Cape Canaveral Space Force Station

Loading…

Next Passes (next 24 hours)

TLE

FreshSource: CelesTrak SupGP

Epoch: Sep 14, 2026, 21:23 UTC

1 65626C 25210E   26257.89145833 -.00042271  00000+0 -12488-2 0  2577
2 65626  53.1566 143.9256 0001254  91.2028 134.2205 15.34415271    18

Track STARLINK-35225 in real time with AllMySat

Download on the App Store